K5LLL-12 Weather Reports


Display with metric or nautical units.
time (UTC)temp
F
wind
direction
speed
MPH
gust
MPH
rain 1hr
in
rain 24hr
in
rain mn
in
humidity
%
barometer
mb
20210614160017 90 0.0 2.0 0.00 0.00 0.00 64 1015.3
20210614155016 89 293 1.0 7.0 0.00 0.00 0.00 67 1015.3
20210614154516 89 270 3.0 7.0 0.00 0.00 0.00 66 1015.3
20210614153516 88 0.0 3.0 0.00 0.00 0.00 69 1015.3
20210614153019 88 293 1.0 5.0 0.00 0.00 0.00 69 1015.3
20210614152516 88 0.0 2.0 0.00 0.00 0.00 71 1015.4
20210614152017 88 0.0 2.0 0.00 0.00 0.00 71 1015.2
20210614151538 87 0.0 4.0 0.00 0.00 0.00 72 1015.2
20210614151017 87 293 1.0 3.0 0.00 0.00 0.00 72 1015.3
20210614145516 86 293 3.0 6.0 0.00 0.00 0.00 71 1015.5
20210614145045 86 0.0 5.0 0.00 0.00 0.00 73 1015.5
20210614144516 86 0.0 3.0 0.00 0.00 0.00 71 1015.4
20210614144016 85 293 2.0 4.0 0.00 0.00 0.00 73 1015.3
20210614143519 85 0.0 3.0 0.00 0.00 0.00 74 1015.4
20210614142517 85 0.0 3.0 0.00 0.00 0.00 74 1015.3
20210614141016 84 0.0 1.0 0.00 0.00 0.00 76 1015.2
20210614135518 83 0.0 0.0 0.00 0.00 0.00 80 1015.2
20210614135036 83 0.0 1.0 0.00 0.00 0.00 80 1015.1
20210614134517 82 0.0 0.0 0.00 0.00 0.00 83 1015.0
20210614134017 82 0.0 0.0 0.00 0.00 0.00 82 1015.0
20210614133525 81 0.0 0.0 0.00 0.00 0.00 85 1015.0
20210614132519 81 0.0 0.0 0.00 0.00 0.00 85 1014.8
20210614132019 81 0.0 0.0 0.00 0.00 0.00 85 1014.9
20210614131517 80 0.0 0.0 0.00 0.00 0.00 86 1014.9
20210614130017 78 0.0 0.0 0.00 0.00 0.00 88 1014.9
20210614125516 78 0.0 0.0 0.00 0.00 0.00 88 1014.9
20210614125017 78 0.0 0.0 0.00 0.00 0.00 88 1014.8
20210614124519 78 0.0 0.0 0.00 0.00 0.00 88 1014.6
20210614123518 78 0.0 0.0 0.00 0.00 0.00 88 1014.5
20210614122515 77 0.0 0.0 0.00 0.00 0.00 89 1014.5
20210614122036 77 0.0 0.0 0.00 0.00 0.00 89 1014.4
20210614121517 76 0.0 0.0 0.00 0.00 0.00 89 1014.3
20210614120524 76 0.0 0.0 0.00 0.00 0.00 88 1014.2
20210614120017 76 0.0 0.0 0.00 0.00 0.00 88 1014.1
20210614115559 76 0.0 0.0 0.00 0.00 0.00 88 1014.1
20210614115017 77 0.0 0.0 0.00 0.00 0.00 88 1014.0
20210614114515 77 0.0 0.0 0.00 0.00 0.00 87 1013.8
20210614114019 77 0.0 0.0 0.00 0.00 0.00 87 1013.6
20210614113516 77 0.0 0.0 0.00 0.00 0.00 87 1013.6
20210614112517 76 0.0 0.0 0.00 0.00 0.00 88 1013.6
20210614112020 76 0.0 0.0 0.00 0.00 0.00 88 1013.6
20210614111520 76 0.0 0.0 0.00 0.00 0.00 89 1013.6
20210614111017 76 0.0 0.0 0.00 0.00 0.00 89 1013.4
20210614105040 76 0.0 3.0 0.00 0.00 0.00 90 1012.9
20210614103039 77 0.0 0.0 0.00 0.00 0.00 88 1013.0
20210614102518 77 0.0 0.0 0.00 0.00 0.00 88 1013.0
20210614102017 77 0.0 0.0 0.00 0.00 0.00 88 1012.8
20210614101019 77 0.0 0.0 0.00 0.00 0.00 88 1013.2
20210614095517 77 0.0 0.0 0.00 0.00 0.00 89 1013.3
20210614094018 76 225 2.0 4.0 0.00 0.00 0.00 92 1013.4
20210614093515 76 0.0 2.0 0.00 0.00 0.00 93 1013.4
20210614093015 76 0.0 0.0 0.00 0.00 0.00 93 1013.7
20210614092017 77 0.0 0.0 0.00 0.00 0.00 92 1013.9
20210614091517 77 0.0 0.0 0.00 0.00 0.00 91 1014.0
20210614091017 78 0.0 0.0 0.00 0.00 0.00 90 1013.9
20210614090518 78 0.0 0.0 0.00 0.00 0.00 89 1014.1
20210614090020 78 0.0 0.0 0.00 0.00 0.00 88 1014.1
20210614085517 78 0.0 0.0 0.00 0.00 0.00 88 1014.2
20210614085015 78 0.0 0.0 0.00 0.00 0.00 88 1014.2
20210614084517 78 0.0 0.0 0.00 0.00 0.00 89 1014.1
20210614084039 78 0.0 0.0 0.00 0.00 0.00 89 1014.1
20210614083515 78 0.0 0.0 0.00 0.00 0.00 89 1014.0
20210614083017 78 0.0 0.0 0.00 0.00 0.00 88 1013.9
20210614082515 78 0.0 0.0 0.00 0.00 0.00 88 1013.7
20210614082017 78 0.0 0.0 0.00 0.00 0.00 88 1013.8
20210614081517 78 0.0 0.0 0.00 0.00 0.00 89 1013.8
20210614081017 78 0.0 0.0 0.00 0.00 0.00 89 1013.8
20210614080517 78 0.0 0.0 0.00 0.00 0.00 89 1013.8
20210614080040 78 203 1.0 2.0 0.00 0.00 0.00 89 1013.8
20210614075016 78 0.0 2.0 0.00 0.00 0.00 89 1014.1
20210614074520 77 158 1.0 3.0 0.00 0.00 0.00 90 1014.1
20210614073517 77 135 3.0 6.0 0.00 0.00 0.00 91 1014.4
20210614073040 78 0.0 0.0 0.00 0.00 0.00 90 1014.4
20210614072025 78 0.0 0.0 0.00 0.00 0.00 90 1014.3
20210614070537 78 0.0 0.0 0.00 0.00 0.00 87 1014.3
20210614070019 79 0.0 0.0 0.00 0.00 0.00 87 1014.3
20210614065520 79 0.0 0.0 0.00 0.00 0.00 86 1014.3
20210614065019 78 0.0 0.0 0.00 0.00 0.00 87 1014.4
20210614064520 78 0.0 0.0 0.00 0.00 0.00 89 1014.5
20210614064019 79 0.0 0.0 0.00 0.00 0.00 90 1014.5
20210614063520 79 0.0 0.0 0.00 0.00 0.00 89 1014.6
20210614063019 79 0.0 0.0 0.00 0.00 0.00 88 1014.5
20210614062519 79 0.0 0.0 0.00 0.00 0.00 87 1014.6
20210614062041 80 0.0 0.0 0.00 0.00 0.00 85 1014.6
20210614061017 80 0.0 0.0 0.00 0.00 0.00 81 1014.7
20210614060517 81 0.0 0.0 0.00 0.00 0.00 81 1014.8
20210614060039 80 0.0 0.0 0.00 0.00 0.00 81 1014.6
20210614055517 80 0.0 0.0 0.00 0.00 0.00 82 1014.6
20210614055022 80 0.0 0.0 0.00 0.00 0.00 82 1014.5
20210614054520 81 0.0 0.0 0.00 0.00 0.00 81 1014.4
20210614054019 81 0.0 0.0 0.00 0.00 0.00 81 1014.4
20210614053518 81 0.0 0.0 0.00 0.00 0.00 82 1014.5
20210614053017 80 0.0 0.0 0.00 0.00 0.00 83 1014.4
20210614052519 80 0.0 0.0 0.00 0.00 0.00 84 1014.3
20210614052017 80 0.0 0.0 0.00 0.00 0.00 86 1014.2
20210614051040 80 0.0 0.0 0.00 0.00 0.00 86 1014.1
20210614050518 80 0.0 0.0 0.00 0.00 0.00 86 1014.0
20210614050020 80 0.0 0.0 0.00 0.00 0.00 85 1013.9
20210614044040 80 0.0 0.0 0.00 0.00 0.00 87 1013.7
20210614043537 80 0.0 0.0 0.00 0.00 0.00 86 1013.7
20210614043039 80 0.0 0.0 0.00 0.00 0.00 87 1013.6
20210614042519 80 0.0 0.0 0.00 0.00 0.00 87 1013.6
20210614042039 80 0.0 0.0 0.00 0.00 0.00 85 1013.4
20210614041517 80 0.0 0.0 0.00 0.00 0.00 85 1013.3
20210614040521 81 0.0 0.0 0.00 0.00 0.00 86 1013.2
20210614040017 80 0.0 0.0 0.00 0.00 0.00 85 1013.1
20210614035518 80 0.0 0.0 0.00 0.00 0.00 88 1013.1
20210614035017 81 0.0 0.0 0.00 0.00 0.00 88 1013.1
20210614034522 81 0.0 0.0 0.00 0.00 0.00 88 1013.1
20210614034017 81 0.0 0.0 0.00 0.00 0.00 87 1013.0
20210614033518 82 0.0 0.0 0.00 0.00 0.00 86 1013.0
20210614033018 82 0.0 0.0 0.00 0.00 0.00 85 1012.9
20210614032518 82 0.0 0.0 0.00 0.00 0.00 85 1012.8
20210614032018 83 0.0 0.0 0.00 0.00 0.00 83 1012.8
20210614031018 84 0.0 0.0 0.00 0.00 0.00 79 1012.8
20210614030520 84 90 1.0 101.0 0.00 0.00 0.00 75 1012.8
20210614030019 83 0.0 0.0 0.00 0.00 0.00 75 1012.7
20210614025518 84 0.0 0.0 0.00 0.00 0.00 78 1012.7
20210614025018 84 0.0 0.0 0.00 0.00 0.00 76 1012.6
20210614024517 84 0.0 0.0 0.00 0.00 0.00 75 1012.6
20210614024018 85 0.0 0.0 0.00 0.00 0.00 74 1012.7
20210614023520 85 0.0 0.0 0.00 0.00 0.00 69 1012.7
20210614023017 85 0.0 0.0 0.00 0.00 0.00 68 1012.7
20210614022523 85 0.0 0.0 0.00 0.00 0.00 70 1012.7
20210614021020 86 0.0 0.0 0.00 0.00 0.00 69 1012.6
20210614020517 86 0.0 0.0 0.00 0.00 0.00 69 1012.5
20210614020018 86 0.0 0.0 0.00 0.00 0.00 70 1012.5
20210614015517 86 0.0 0.0 0.00 0.00 0.00 69 1012.5
20210614015038 87 0.0 0.0 0.00 0.00 0.00 68 1012.6
20210614014518 87 0.0 0.0 0.00 0.00 0.00 68 1012.6
20210614014039 88 0.0 0.0 0.00 0.00 0.00 66 1012.6
20210614013517 88 0.0 0.0 0.00 0.00 0.00 67 1012.5
20210614013037 88 0.0 0.0 0.00 0.00 0.00 66 1012.5
20210614012517 89 0.0 0.0 0.00 0.00 0.00 64 1012.7
20210614012039 89 0.0 0.0 0.00 0.00 0.00 63 1012.6
20210614011518 89 0.0 0.0 0.00 0.00 0.00 63 1012.5
20210614011101 90 0.0 0.0 0.00 0.00 0.00 63 1012.5
20210614010542 90 0.0 0.0 0.00 0.00 0.00 62 1012.5
20210614010041 91 0.0 0.0 0.00 0.00 0.00 62 1012.4
20210614005600 91 0.0 0.0 0.00 0.00 0.00 61 1012.4
20210614005020 91 0.0 0.0 0.00 0.00 0.00 62 1012.4
20210614004553 92 0.0 0.0 0.00 0.00 0.00 61 1012.3
20210614004020 92 0.0 0.0 0.00 0.00 0.00 58 1012.3
20210614003518 92 0.0 0.0 0.00 0.00 0.00 58 1012.3
20210614003040 92 0.0 0.0 0.00 0.00 0.00 55 1012.3
20210614001017 93 0.0 0.0 0.00 0.00 0.00 51 1012.2
20210614000018 93 0.0 0.0 0.00 0.00 0.00 51 1012.3
20210613235518 94 0.0 1.0 0.00 0.00 0.00 50 1012.2
20210613235023 94 0.0 1.0 0.00 0.00 0.00 50 1012.3
20210613234601 94 0.0 1.0 0.00 0.00 0.00 48 1012.2
20210613234016 94 0.0 1.0 0.00 0.00 0.00 48 1012.2
20210613233541 94 0.0 1.0 0.00 0.00 0.00 48 1012.2
20210613233017 94 0.0 0.0 0.00 0.00 0.00 46 1012.2
20210613232018 94 0.0 1.0 0.00 0.00 0.00 50 1012.3
20210613231517 94 0.0 2.0 0.00 0.00 0.00 48 1012.3
20210613231020 94 0.0 4.0 0.00 0.00 0.00 49 1012.4
20210613230518 95 0.0 0.0 0.00 0.00 0.00 48 1012.3
20210613230039 95 0.0 1.0 0.00 0.00 0.00 46 1012.4
20210613225516 95 0.0 1.0 0.00 0.00 0.00 47 1012.5
20210613225018 95 0 1.0 5.0 0.00 0.00 0.00 48 1012.6
20210613224516 95 338 1.0 5.0 0.00 0.00 0.00 49 1012.6
20210613224016 95 0.0 4.0 0.00 0.00 0.00 48 1012.7
20210613223517 95 0.0 3.0 0.00 0.00 0.00 49 1012.7
20210613223018 95 0.0 5.0 0.00 0.00 0.00 50 1012.7
20210613222038 95 0.0 4.0 0.00 0.00 0.00 52 1012.7
20210613221516 95 0.0 0.0 0.00 0.00 0.00 52 1012.7
20210613221037 95 0.0 0.0 0.00 0.00 0.00 52 1012.7
20210613220516 95 0.0 2.0 0.00 0.00 0.00 53 1012.8
20210613220020 96 0.0 1.0 0.00 0.00 0.00 50 1012.8
20210613215518 95 293 1.0 4.0 0.00 0.00 0.00 49 1012.8
20210613215019 96 0.0 2.0 0.00 0.00 0.00 50 1012.9
20210613214559 95 0.0 0.0 0.00 0.00 0.00 51 1012.9
20210613214016 94 0.0 4.0 0.00 0.00 0.00 52 1013.0
20210613213542 94 293 2.0 7.0 0.00 0.00 0.00 50 1013.0
20210613213023 95 0.0 4.0 0.00 0.00 0.00 52 1013.1
20210613212017 94 293 1.0 6.0 0.00 0.00 0.00 52 1013.1
20210613211101 94 0.0 3.0 0.00 0.00 0.00 54 1013.3
20210613210516 94 0.0 3.0 0.00 0.00 0.00 54 1013.3
20210613210017 94 0.0 0.0 0.00 0.00 0.00 54 1013.3
20210613205518 94 0.0 2.0 0.00 0.00 0.00 52 1013.4
20210613204518 94 0.0 4.0 0.00 0.00 0.00 54 1013.5
20210613204018 94 0.0 1.0 0.00 0.00 0.00 52 1013.6
20210613203519 94 315 1.0 7.0 0.00 0.00 0.00 54 1013.7
20210613203042 93 0.0 2.0 0.00 0.00 0.00 55 1013.7
20210613202018 93 293 2.0 7.0 0.00 0.00 0.00 55 1014.0
20210613201538 93 293 3.0 8.0 0.00 0.00 0.00 56 1013.9
20210613201016 93 270 1.0 6.0 0.00 0.00 0.00 57 1014.0
20210613200518 93 270 2.0 7.0 0.00 0.00 0.00 55 1014.2
20210613200016 93 0.0 5.0 0.00 0.00 0.00 53 1014.2
20210613195017 92 270 1.0 6.0 0.00 0.00 0.00 55 1014.5
20210613194540 92 270 2.0 5.0 0.00 0.00 0.00 57 1014.6
20210613194018 92 293 1.0 4.0 0.00 0.00 0.00 57 1014.7
20210613193017 92 270 3.0 8.0 0.00 0.00 0.00 58 1014.7
20210613192519 92 270 1.0 6.0 0.00 0.00 0.00 55 1014.8
20210613192019 92 270 2.0 5.0 0.00 0.00 0.00 55 1014.8
20210613191537 92 0.0 2.0 0.00 0.00 0.00 58 1014.9
20210613191018 91 315 1.0 4.0 0.00 0.00 0.00 61 1015.0
20210613190536 91 293 3.0 7.0 0.00 0.00 0.00 59 1015.1
20210613190016 91 270 2.0 5.0 0.00 0.00 0.00 59 1015.1
20210613185036 91 0.0 0.0 0.00 0.00 0.00 63 1015.1
20210613184016 91 0.0 3.0 0.00 0.00 0.00 61 1015.3
20210613183018 92 315 1.0 5.0 0.00 0.00 0.00 58 1015.4
20210613181518 91 0.0 0.0 0.00 0.00 0.00 63 1015.3
20210613180521 91 0.0 3.0 0.00 0.00 0.00 65 1015.3
20210613180016 90 225 1.0 5.0 0.00 0.00 0.00 66 1015.3
20210613175518 89 0.0 4.0 0.00 0.00 0.00 66 1015.5
20210613174555 90 293 1.0 6.0 0.00 0.00 0.00 65 1015.6
20210613174058 89 293 1.0 6.0 0.00 0.00 0.00 67 1015.6
20210613173017 89 0.0 4.0 0.00 0.00 0.00 68 1015.7
20210613172516 89 0.0 2.0 0.00 0.00 0.00 67 1015.7
20210613172120 89 0.0 2.0 0.00 0.00 0.00 66 1015.7
20210613171017 89 0.0 2.0 0.00 0.00 0.00 66 1015.7
20210613170516 89 293 2.0 6.0 0.00 0.00 0.00 65 1015.8
20210613170019 89 225 1.0 6.0 0.00 0.00 0.00 64 1015.8
20210613165017 89 0.0 3.0 0.00 0.00 0.00 65 1015.9
20210613164517 89 0.0 1.0 0.00 0.00 0.00 67 1015.8
20210613164019 89 0.0 3.0 0.00 0.00 0.00 66 1015.8
20210613163537 88 225 2.0 5.0 0.00 0.00 0.00 68 1015.9
20210613162516 88 293 2.0 5.0 0.00 0.00 0.00 69 1016.0
20210613162019 88 248 1.0 4.0 0.00 0.00 0.00 68 1015.9
20210613161017 87 270 5.0 8.0 0.00 0.00 0.00 68 1016.0
20210613160517 87 270 2.0 5.0 0.00 0.00 0.00 68 1015.9